|
Cosmos 1758 - Orbit
|
Tyler Bend Campground;
08:25:41
| Home | Info | Passes |
|
View from above orbital plane
|
View from above satellite
|
Ground track
|
The orbit data is extracted from the following two-line orbital elements,
1 16791U 86046A 13140.17017232 .00002778 00000-0 22564-3 0 7095
2 16791 082.4749 038.0878 0020229 099.3849 260.9663 14.99100883462110
| Epoch (UTC): | 20 May 2013 04:05:02 |
| Eccentricity: | 0.0020229 |
| inclination: | 82.4749° |
| perigee height: | 555 km |
| apogee height: | 584 km |
| right ascension of ascending node: | 38.0878° |
| argument of perigee: | 99.3849° |
| revolutions per day: | 14.99100883 |
| mean anomaly at epoch: | 260.9663° |
| orbit number at epoch: | 46211 |
The dashed part of the orbit path shows where the satellite is in the earth's shadow,
|
|